EW5058 Weather Reports


Display with metric or nautical units.
time (UTC)temp
F
wind
direction
speed
MPH
gust
MPH
rain 1hr
in
rain 24hr
in
rain mn
in
humidity
%
barometer
mb
20260508190820 69 180 3.0 7.0 0.00 0.00 0.00 47 1013.5
20260508185820 69 158 2.0 6.0 0.00 0.00 0.00 43 1013.7
20260508184820 70 180 1.0 4.0 0.00 0.00 0.00 46 1013.7
20260508183820 69 180 3.0 6.0 0.00 0.00 0.00 50 1013.8
20260508182820 69 158 5.0 11.0 0.00 0.00 0.00 46 1013.8
20260508181820 68 158 2.0 5.0 0.00 0.00 0.00 47 1013.9
20260508180820 69 180 3.0 8.0 0.00 0.00 0.00 49 1014.1
20260508175820 71 180 3.0 6.0 0.00 0.00 0.00 40 1014.1
20260508174818 70 203 1.0 3.0 0.00 0.00 0.00 41 1014.1
20260508173820 69 0.0 1.0 0.00 0.00 0.00 45 1014.2
20260508172839 68 203 1.0 4.0 0.00 0.00 0.00 42 1014.3
20260508171819 69 180 3.0 7.0 0.00 0.00 0.00 40 1014.5
20260508170820 68 225 2.0 3.0 0.00 0.00 0.00 43 1014.6
20260508165820 69 180 2.0 5.0 0.00 0.00 0.00 40 1014.7
20260508164839 67 203 2.0 5.0 0.00 0.00 0.00 41 1014.9
20260508163819 67 180 2.0 5.0 0.00 0.00 0.00 44 1014.9
20260508162819 68 203 1.0 3.0 0.00 0.00 0.00 38 1015.0
20260508161820 67 158 5.0 11.0 0.00 0.00 0.00 36 1015.1
20260508160840 69 158 3.0 5.0 0.00 0.00 0.00 37 1015.3
20260508155820 71 0.0 2.0 0.00 0.00 0.00 41 1015.3
20260508154819 69 293 1.0 2.0 0.00 0.00 0.00 39 1015.5
20260508153820 65 0.0 1.0 0.00 0.00 0.00 37 1015.6
20260508152819 65 203 1.0 2.0 0.00 0.00 0.00 37 1015.6
20260508151820 66 180 1.0 3.0 0.00 0.00 0.00 43 1015.6
20260508150819 67 180 3.0 4.0 0.00 0.00 0.00 43 1015.6
20260508145819 66 315 3.0 4.0 0.00 0.00 0.00 53 1015.6
20260508144819 65 225 2.0 6.0 0.00 0.00 0.00 51 1015.5
20260508143819 64 203 1.0 3.0 0.00 0.00 0.00 54 1015.7
20260508142819 65 0.0 1.0 0.00 0.00 0.00 47 1015.6
20260508141819 66 0.0 1.0 0.00 0.00 0.00 47 1015.7
20260508140839 65 0.0 1.0 0.00 0.00 0.00 52 1015.8
20260508135819 64 315 1.0 3.0 0.00 0.00 0.00 52 1015.9
20260508134819 63 315 3.0 5.0 0.00 0.00 0.00 50 1015.9
20260508133819 61 0.0 1.0 0.00 0.00 0.00 51 1015.8
20260508132819 61 338 1.0 2.0 0.00 0.00 0.00 54 1015.8
20260508131819 60 315 3.0 4.0 0.00 0.00 0.00 56 1016.0
20260508130819 59 0 2.0 3.0 0.00 0.00 0.00 59 1016.1
20260508125819 57 0 1.0 2.0 0.00 0.00 0.00 63 1016.0
20260508124819 56 338 1.0 3.0 0.00 0.00 0.00 65 1016.0
20260508123819 55 0.0 1.0 0.00 0.00 0.00 66 1015.8
20260508122819 54 338 2.0 4.0 0.00 0.00 0.00 68 1015.8
20260508121819 53 0.0 1.0 0.00 0.00 0.00 70 1015.8
20260508120819 52 0.0 0.0 0.00 0.00 0.00 72 1015.6
20260508115819 51 0.0 0.0 0.00 0.00 0.00 74 1015.5
20260508114839 50 0.0 0.0 0.00 0.00 0.00 75 1015.5
20260508113839 50 0.0 0.0 0.00 0.00 0.00 78 1015.5
20260508112819 49 0.0 0.0 0.00 0.00 0.00 79 1015.3
20260508111819 49 0.0 0.0 0.00 0.00 0.00 80 1015.2
20260508110818 48 0.0 0.0 0.00 0.00 0.00 80 1015.1
20260508105819 48 0.0 0.0 0.00 0.00 0.00 79 1014.9
20260508104818 48 0.0 0.0 0.00 0.00 0.00 77 1014.6
20260508103819 49 0.0 0.0 0.00 0.00 0.00 77 1014.5
20260508102819 49 0.0 0.0 0.00 0.00 0.00 77 1014.4
20260508101858 50 0.0 0.0 0.00 0.00 0.00 76 1014.3
20260508100819 50 0.0 0.0 0.00 0.00 0.00 73 1014.2
20260508095819 51 0.0 1.0 0.00 0.00 0.00 71 1014.0
20260508094839 51 338 2.0 4.0 0.00 0.00 0.00 71 1013.9
20260508093819 51 338 2.0 3.0 0.00 0.00 0.00 72 1013.9
20260508092818 52 338 6.0 8.0 0.00 0.00 0.00 73 1013.7
20260508091859 52 338 8.0 13.0 0.00 0.00 0.00 75 1013.5
20260508090818 52 338 6.0 9.0 0.00 0.00 0.00 77 1013.5
20260508085819 53 338 4.0 5.0 0.00 0.00 0.00 76 1013.5
20260508084818 53 338 6.0 9.0 0.00 0.00 0.00 74 1013.3
20260508083819 53 338 9.0 11.0 0.00 0.00 0.00 77 1013.1
20260508082819 52 338 7.0 10.0 0.00 0.00 0.00 80 1013.0
20260508081818 52 315 5.0 8.0 0.00 0.00 0.00 82 1012.9
20260508080819 52 338 4.0 5.0 0.00 0.00 0.00 83 1012.8
20260508075818 52 338 7.0 12.0 0.00 0.00 0.00 84 1012.6
20260508074920 52 315 5.0 10.0 0.00 0.00 0.00 87 1012.5
20260508073818 52 315 2.0 4.0 0.00 0.00 0.00 88 1012.3
20260508072838 52 315 7.0 12.0 0.00 0.00 0.00 89 1012.1
20260508071838 52 315 2.0 3.0 0.00 0.00 0.00 89 1012.0
20260508070818 52 0 2.0 4.0 0.00 0.00 0.00 90 1011.9
20260508065858 53 0.0 1.0 0.00 0.01 0.00 89 1011.7
20260508064818 53 0.0 0.0 0.00 0.01 0.00 89 1011.6
20260508063818 53 0.0 0.0 0.00 0.01 0.00 89 1011.4
20260508062818 54 0.0 1.0 0.00 0.01 0.00 89 1011.5
20260508061818 54 0.0 2.0 0.00 0.01 0.00 88 1011.4
20260508060820 54 0.0 0.0 0.00 0.01 0.00 88 1011.5
20260508055818 54 0.0 0.0 0.00 0.04 0.00 89 1011.5
20260508054818 53 0.0 0.0 0.00 0.04 0.00 89 1011.5
20260508053818 53 0.0 1.0 0.00 0.04 0.00 88 1011.6
20260508052820 53 0.0 0.0 0.00 0.04 0.00 89 1011.6
20260508051820 53 0.0 0.0 0.00 0.04 0.00 88 1011.6
20260508050818 53 0.0 0.0 0.00 0.04 0.00 88 1011.6
20260508045818 53 0.0 0.0 0.00 0.04 0.00 89 1011.6
20260508044838 52 0.0 0.0 0.00 0.04 0.00 89 1011.5
20260508043820 52 0.0 0.0 0.00 0.04 0.00 90 1011.4
20260508042820 52 0.0 0.0 0.00 0.04 0.00 90 1011.3
20260508041818 52 0.0 0.0 0.00 0.04 0.00 89 1011.2
20260508040820 51 0.0 0.0 0.00 0.04 0.00 89 1011.2
20260508035839 51 0.0 0.0 0.00 0.04 0.04 88 1011.1
20260508034819 51 0.0 1.0 0.00 0.04 0.04 86 1011.1
20260508033819 51 0.0 0.0 0.00 0.04 0.04 85 1010.9
20260508032819 51 0.0 0.0 0.00 0.04 0.04 83 1011.0
20260508031819 51 0.0 0.0 0.00 0.04 0.04 83 1011.1
20260508030819 52 0.0 0.0 0.00 0.04 0.04 82 1011.1
20260508025819 52 0.0 0.0 0.00 0.04 0.04 82 1011.1
20260508024859 51 0.0 1.0 0.00 0.04 0.04 83 1011.1
20260508023839 51 0.0 1.0 0.00 0.04 0.04 82 1011.2
20260508022819 51 0.0 0.0 0.00 0.04 0.04 82 1011.1
20260508021818 50 0.0 0.0 0.00 0.04 0.04 83 1011.0
20260508020819 50 0.0 1.0 0.00 0.04 0.04 83 1010.9
20260508015839 50 0.0 1.0 0.00 0.04 0.04 83 1010.9
20260508014839 50 0.0 0.0 0.00 0.04 0.04 83 1010.9
20260508013819 50 0.0 0.0 0.00 0.04 0.04 83 1010.8
20260508012838 51 0.0 0.0 0.00 0.04 0.04 83 1010.6
20260508011819 51 0.0 0.0 0.00 0.04 0.04 83 1010.6
20260508010819 51 0.0 0.0 0.00 0.04 0.04 83 1010.4
20260508005819 51 0.0 0.0 0.00 0.04 0.04 82 1010.3
20260508004819 52 0.0 0.0 0.00 0.04 0.04 81 1010.2
20260508003819 52 0.0 1.0 0.00 0.04 0.04 81 1010.1
20260508002819 52 0.0 0.0 0.00 0.04 0.04 81 1010.1
20260508001839 53 0.0 0.0 0.00 0.04 0.04 79 1009.9
20260508000819 53 0.0 0.0 0.00 0.04 0.04 78 1009.9
20260507235818 54 180 1.0 2.0 0.00 0.04 0.04 77 1009.8
20260507234819 54 180 1.0 1.0 0.00 0.04 0.04 75 1009.7
20260507233819 55 180 1.0 1.0 0.00 0.04 0.04 74 1009.4
20260507232819 55 180 1.0 2.0 0.00 0.04 0.04 74 1009.4
20260507231859 55 158 2.0 4.0 0.00 0.04 0.04 73 1009.3
20260507230819 55 180 2.0 3.0 0.00 0.04 0.04 73 1009.2
20260507225819 55 180 1.0 4.0 0.00 0.04 0.04 73 1009.2
20260507224819 56 203 2.0 3.0 0.00 0.04 0.04 73 1009.1
20260507223838 56 180 3.0 4.0 0.00 0.04 0.04 72 1009.1
20260507222818 56 180 4.0 8.0 0.00 0.04 0.04 74 1009.2
20260507221818 56 135 3.0 8.0 0.00 0.04 0.04 73 1009.2
20260507220818 56 180 3.0 5.0 0.00 0.04 0.04 73 1009.2
20260507215818 57 180 3.0 6.0 0.00 0.04 0.04 72 1009.3
20260507214819 57 180 4.0 6.0 0.00 0.04 0.04 72 1009.3
20260507213818 58 158 3.0 5.0 0.00 0.04 0.04 74 1009.3
20260507212818 58 180 2.0 8.0 0.00 0.04 0.04 74 1009.3
20260507211818 58 158 3.0 4.0 0.00 0.04 0.04 71 1008.9
20260507210820 58 180 4.0 8.0 0.00 0.04 0.04 69 1009.2
20260507205818 58 180 2.0 4.0 0.00 0.04 0.04 70 1009.6
20260507204818 59 180 3.0 4.0 0.00 0.04 0.04 70 1009.4
20260507203818 59 203 1.0 2.0 0.00 0.04 0.04 69 1009.1
20260507202818 59 180 2.0 4.0 0.00 0.04 0.04 66 1009.3
20260507201818 59 0.0 1.0 0.00 0.04 0.04 67 1009.0
20260507200818 59 203 2.0 2.0 0.00 0.04 0.04 70 1009.5
20260507195838 60 0.0 0.0 0.00 0.04 0.04 69 1009.0
20260507194838 60 0.0 0.0 0.00 0.04 0.04 66 1009.4
20260507193818 60 0.0 0.0 0.00 0.04 0.04 64 1009.3
20260507192820 60 0.0 0.0 0.00 0.04 0.04 65 1009.7
20260507191818 61 0.0 0.0 0.00 0.04 0.04 66 1009.2